Kuchera_Ratio
9.2 3.0 2.4 6.2 6.4 3.4 8.6 6.4 14.4 12.4 12.9 12.2 9.2 10.6 11.4 10.2 10.4 11.8 12.8 13.3 13.1 13.2 13.1 12.7 12.1 11.4 9.6 10.4 10.0 9.4 9.6 9.8 9.2 8.0 6.2 6.0 6.0 5.4 4.6 4.0 2.9 2.0 0.1 0.0
13.0 4.6 5.0 10.4 7.2 5.4 9.4 8.0 8.6 9.8 13.2 8.2 8.0 8.8 12.1 12.6 12.8 13.6 13.8 13.5 13.3 13.0 12.8 12.9 12.0 12.6 11.0 10.8 11.0 10.2 11.4 12.1 10.6 9.6 8.2 7.8 7.2 7.8 7.6 7.8 6.5 4.8 6.4 3.8
17.1 5.4 4.8 14.7 11.7 9.8 7.4 1.8 4.0 12.2 10.1 9.2 12.1 12.6 13.2 13.2 13.4 14.2 13.8 14.1 13.9 13.8 13.8 13.8 13.1 12.5 12.9 12.0 10.8 11.4 12.1 11.4 12.3 11.6 11.6 10.2 8.4 8.2 10.0 9.0 10.0 9.3 9.5 7.5
15.8 12.7 17.7 10.8 3.0 2.0 6.0 3.6 6.4 10.0 10.4 8.8 12.0 13.0 13.0 12.7 13.6 14.1 14.1 14.6 14.5 14.2 14.0 14.0 12.8 12.7 12.3 11.2 11.6 12.1 12.9 12.7 12.4 12.6 12.6 12.0 11.0 11.0 9.8 11.2 11.9 11.7 12.3 11.0
16.9 15.3 10.4 10.4 6.4 7.0 10.8 9.6 3.6 8.4 8.4 11.2 12.2 12.5 14.0 12.3 13.1 14.7 15.0 14.9 15.2 14.4 13.8 13.9 13.9 12.9 13.1 13.0 12.2 12.5 13.0 13.3 12.4 13.4 12.8 12.6 11.9 12.3 12.5 11.8 11.4 12.4 12.5 10.7
12.3 14.9 15.9 12.4 0.0 0.0 0.0 14.4 1.8 5.4 10.0 12.3 12.2 14.4 15.7 12.7 13.3 14.4 14.8 15.6 15.9 15.1 13.9 14.7 14.6 13.6 14.2 14.5 14.1 14.0 13.1 13.4 12.7 12.6 13.6 13.1 12.9 12.4 12.6 12.0 12.1 11.6 10.9 11.2
14.0 14.5 12.1 2.0 0.0 0.0 14.7 13.4 2.8 4.4 8.0 11.2 13.3 13.6 14.0 13.0 14.0 14.0 15.2 15.5 14.3 15.0 15.1 14.9 14.1 14.7 14.0 14.5 14.6 13.9 13.9 12.7 13.3 13.5 13.7 13.7 13.2 13.0 12.9 12.6 12.4 11.5 10.8 10.6
12.9 13.9 15.1 0.8 0.2 9.8 8.6 3.8 3.7 3.4 7.0 12.2 14.1 14.1 14.6 14.9 15.1 14.4 14.9 15.0 14.3 15.1 15.2 13.8 13.7 14.4 14.5 14.2 13.1 12.9 13.1 14.1 14.4 14.2 14.0 13.7 13.4 13.0 12.7 12.5 12.2 12.5 12.4 11.9
12.1 12.7 7.6 6.0 5.8 3.2 3.2 5.8 8.3 6.0 9.1 8.9 13.7 14.2 14.8 14.7 14.1 14.1 13.8 14.4 13.8 14.7 14.7 13.6 13.4 13.8 14.8 13.8 12.8 13.0 13.3 13.4 14.3 14.1 13.8 13.8 13.5 13.6 12.8 13.0 12.9 12.8 12.7 12.6
12.0 12.6 8.8 5.6 3.2 2.4 4.1 6.7 8.8 7.9 9.4 10.4 13.1 14.1 14.7 13.9 13.5 13.6 12.9 13.2 13.7 14.3 14.9 15.1 13.7 14.0 14.2 13.8 13.0 13.0 13.5 13.7 13.7 14.4 14.3 14.1 14.1 13.9 13.7 13.1 13.1 13.5 13.5 13.7
13.0 11.2 8.6 5.6 6.0 6.6 7.2 6.8 9.4 9.6 11.6 12.8 13.0 13.8 13.9 14.2 13.9 13.0 12.8 12.7 12.2 14.0 14.7 15.3 14.6 14.4 14.6 14.2 14.0 13.9 13.7 14.5 14.5 14.0 14.0 13.7 13.3 13.4 13.9 14.5 14.6 14.6 14.7 14.9
12.3 9.0 9.5 11.5 7.4 5.4 8.4 9.2 8.4 10.2 12.0 11.0 11.8 13.0 12.6 13.4 12.7 12.4 12.9 11.9 12.8 13.9 14.5 14.8 14.8 15.0 13.7 12.6 13.3 14.2 13.9 13.9 14.9 14.7 15.0 14.6 15.5 15.7 11.8 12.3 12.3 12.4 12.4 13.7
6.0 5.4 8.6 8.5 8.2 4.6 7.0 6.8 6.2 8.2 8.8 11.6 9.4 9.4 9.0 11.4 10.7 9.3 11.6 12.7 13.7 14.5 15.1 15.8 16.0 15.9 15.5 13.9 13.2 13.9 15.2 13.9 14.4 14.6 14.9 15.4 15.8 16.2 17.3 16.1 12.0 12.8 13.1 12.8
6.6 7.8 11.0 9.3 12.0 6.4 4.8 4.0 3.0 4.6 5.8 6.6 7.0 8.0 11.0 12.2 12.2 13.6 14.3 14.5 14.7 15.1 15.8 16.3 16.7 16.7 16.3 15.1 14.6 15.7 15.8 15.8 16.0 16.5 16.7 16.6 16.4 16.7 17.2 18.1 18.6 18.4 15.6 14.7
7.0 3.2 7.6 6.2 5.8 6.6 2.8 3.4 6.8 8.6 7.6 8.6 9.8 11.2 12.3 14.4 15.8 15.7 14.8 13.8 14.8 16.2 16.2 16.5 16.5 16.5 16.6 15.2 15.1 15.4 15.1 15.7 15.8 16.3 16.5 16.6 16.6 16.9 17.3 17.9 18.5 18.9 19.5 19.1
4.7 5.4 5.8 8.8 8.2 7.6 5.2 5.2 7.6 9.8 9.2 10.0 12.0 13.2 13.9 14.9 15.4 16.0 15.7 15.7 16.5 16.3 16.4 16.7 17.1 17.0 17.1 16.9 15.9 15.7 15.7 15.7 15.8 16.6 16.7 17.0 17.0 17.4 17.7 18.0 18.3 18.5 18.9 19.3
8.4 11.6 8.8 9.6 10.0 9.2 7.4 4.3 5.4 7.7 9.4 11.4 12.9 13.2 14.1 15.9 16.7 16.4 16.1 16.2 16.3 16.2 16.7 17.4 17.5 17.9 17.7 17.0 16.7 16.1 16.1 16.3 16.1 16.5 17.1 17.0 17.1 17.4 17.7 17.9 18.1 18.4 18.7 19.0
3.0 5.0 4.5 5.2 8.2 9.6 8.4 5.0 6.4 8.0 10.6 12.2 14.4 15.5 16.5 16.5 16.5 16.7 16.5 16.1 16.5 16.9 17.1 17.4 18.1 18.1 17.7 17.3 17.0 16.7 16.7 16.9 16.9 17.0 17.3 17.6 17.7 17.9 18.1 18.4 18.7 18.8 19.0 19.3
0.0 3.6 3.6 4.6 6.6 8.2 7.4 7.1 11.0 12.1 13.0 14.1 15.2 16.5 16.6 17.2 17.2 16.9 16.9 17.2 17.3 17.3 17.3 18.0 17.9 17.7 17.6 17.7 17.2 17.3 17.2 17.5 17.6 17.8 18.1 18.3 18.5 18.7 19.0 19.2 19.2 19.4 19.5 19.7
4.7 5.9 6.8 7.6 8.0 11.6 12.6 11.2 12.0 12.9 14.0 14.7 16.0 17.0 16.7 17.0 17.3 17.4 17.6 17.6 17.5 17.7 18.2 17.9 17.4 17.0 17.5 16.3 17.6 17.7 17.9 18.1 18.5 18.8 19.0 19.5 20.0 20.2 20.3 20.5 20.7 20.7 20.7 20.7
9.4 9.7 11.3 12.2 12.9 13.3 13.5 13.5 14.1 14.7 15.9 15.5 16.2 16.7 16.9 17.4 17.7 17.8 17.9 17.9 18.1 17.7 16.9 17.3 17.5 17.8 17.2 18.1 18.1 18.4 19.0 19.3 19.7 20.0 20.6 21.1 21.2 21.4 21.9 22.0 22.2 22.3 22.1 22.1
12.1 12.8 13.5 13.7 14.3 15.1 15.0 14.8 15.2 15.4 16.4 16.9 17.4 17.7 17.6 17.9 18.2 18.3 17.6 17.1 17.1 17.2 17.0 16.3 17.5 18.6 18.6 18.9 18.7 19.7 20.1 20.6 21.1 21.7 22.1 22.5 23.2 23.5 23.4 23.7 23.9 23.9 22.8 23.4
13.4 13.7 14.1 14.4 14.9 15.6 16.1 16.0 16.5 15.9 16.6 16.7 17.0 17.6 17.7 17.3 17.3 18.2 17.9 16.1 16.0 17.1 16.9 18.8 19.2 19.3 19.4 19.9 20.5 20.9 21.4 22.0 22.7 23.0 23.7 24.2 24.4 24.8 25.2 25.4 24.8 24.5 26.5 26.3
14.1 14.5 14.9 15.4 15.7 16.4 16.7 17.4 17.2 17.1 16.8 17.4 17.3 16.7 16.2 17.2 15.8 14.7 15.8 16.4 16.8 17.6 18.8 19.6 19.9 20.4 20.2 21.0 22.1 22.4 22.9 23.5 24.1 24.9 25.2 25.6 26.0 26.5 27.1 27.7 26.5 28.5 28.6 28.5
14.6 15.4 16.0 16.4 16.8 17.0 16.6 15.8 16.0 15.9 16.1 15.3 14.8 14.7 14.4 13.7 15.1 16.4 16.5 17.1 17.8 18.5 19.9 20.4 20.4 21.2 21.6 22.2 23.2 23.8 24.3 25.2 26.0 26.4 26.7 27.3 28.1 28.7 29.2 29.4 30.1 30.4 30.4 29.4
14.2 15.1 15.2 14.0 14.4 15.0 15.4 15.0 16.7 16.4 15.8 17.4 16.2 15.6 15.5 15.8 16.2 16.2 17.3 17.7 18.4 18.6 19.0 21.1 21.8 22.3 22.8 23.6 24.4 25.0 25.6 26.2 27.1 27.3 27.8 28.6 29.0 29.4 29.9 30.3 30.9 30.6 30.0 29.3
13.1 13.9 14.0 13.5 12.9 14.0 14.6 14.7 16.1 16.9 15.8 16.4 16.6 15.3 15.7 16.0 16.6 16.6 17.7 18.0 19.0 19.8 21.1 22.0 22.6 23.0 24.1 24.9 25.3 26.0 26.5 27.4 27.6 27.9 28.5 29.0 29.4 29.9 30.4 30.8 30.7 30.7 29.9 29.6